Regional Weather Roundup
Issued by NWS Wilmington, NC

Home | Current Version | Previous Version | Text Only | Print | Product List | Glossary On
Versions: 1 2 3 4 5 6 7 8 9 10 11 12 13 14 15 16 17 18 19 20 21 22 23 24 25 26 27 28 29 30 31 32 33 34 35 36 37 38 39 40 41 42 43 44 45 46 47 48 49 50
000
ASUS42 KILM 290410
RWRILM
RWRILM
REGIONAL HOURLY WEATHER ROUNDUP
NATIONAL WEATHER SERVICE WILMINGTON NC
1200 AM EDT FRI AUG 29 2014

NOTE: "FAIR" INDICATES FEW OR NO CLOUDS BELOW 12,000 FEET WITH NO
SIGNIFICANT WEATHER AND/OR OBSTRUCTIONS TO VISIBILITY.

...............WFO WILMINGTON COUNTY WARNING AREA...............

......COASTAL NC AND SC COUNTIES......

CITY           SKY/WX    TMP DP  RH WIND       PRES   REMARKS
WILMINGTON     CLEAR     76  70  82 SW6       30.03R
SOUTHPORT      CLEAR     78  69  73 SW6       30.03S
N MYRTLE BEACH CLEAR     79  70  74 W5        30.03R
MYRTLE BEACH   CLEAR     77  66  69 SW5       30.04R

......INLAND NC AND SC COUNTIES.......

CITY           SKY/WX    TMP DP  RH WIND       PRES   REMARKS
LUMBERTON      CLEAR     75  68  78 CALM      30.02R
ELIZABETHTOWN  CLEAR     75  68  78 S3        30.03R
WHITEVILLE     CLEAR     74  67  78 CALM      30.03R
FLORENCE       CLEAR     75  65  70 SW6       30.03R
DARLINGTON     CLEAR     73  61  64 SW6       30.04R

....................REST OF NORTH CAROLINA......................

.........EASTERN NC.........

CITY           SKY/WX    TMP DP  RH WIND       PRES   REMARKS
CAPE HATTERAS  MOCLDY    75  75 100 E5        30.03R
JACKSONVILLE   CLEAR     73  66  78 SW5       30.03R
MOREHEAD CITY  PTCLDY    80  72  76 SW8       30.02S
KENANSVILLE    CLEAR     74  70  86 CALM      30.03S
NEW BERN       PTCLDY    76  70  82 SW5       30.03R
ELIZABETH CITY MOCLDY    76  72  87 CALM      30.03R

.........CENTRAL NC.........

CITY           SKY/WX    TMP DP  RH WIND       PRES   REMARKS
RALEIGH DURHAM PTCLDY    75  71  87 CALM      30.02S
ROCKY MOUNT    CLEAR     74  73  97 CALM      30.01S FOG
ROANOKE RAPIDS NOT AVBL
FAYETTEVILLE   CLEAR     78  68  71 S5        30.02R
HOFFMAN        CLEAR     75  69  80 W1        30.04R

.........WESTERN NC.........

CITY           SKY/WX    TMP DP  RH WIND       PRES   REMARKS
CHARLOTTE      PTCLDY    76  67  73 CALM      30.04S
GREENSBORO     MOCLDY    79  71  76 CALM      30.05R
HICKORY        NOT AVBL
BOONE          NOT AVBL
ASHEVILLE      NOT AVBL

.....................REST OF SOUTH CAROLINA.....................

.........EASTERN SC.........

CITY           SKY/WX    TMP DP  RH WIND       PRES   REMARKS
CHARLESTON     CLEAR     74  68  81 S5        30.04S
BEAUFORT MCAS  CLEAR     73  68  84 W3        30.04S
HILTON HEAD    NOT AVBL

.........CENTRAL SC.........

CITY           SKY/WX    TMP DP  RH WIND       PRES   REMARKS
COLUMBIA       CLEAR     78  60  53 SW7       30.02R
ORANGEBURG     CLEAR     70  63  78 CALM      30.04S
SUMTER SHAW    CLEAR     75  65  71 S3        30.02R

.........WESTERN SC.........

CITY           SKY/WX    TMP DP  RH WIND       PRES   REMARKS
GREENVILLE     NOT AVBL
ROCK HILL      CLEAR     71  68  90 SW6       30.04S
ANDERSON       CLEAR     73  65  75 CALM      30.04R
CLEMSON        NOT AVBL
GREENWOOD      CLEAR     72  63  73 CALM      30.04S


...................COASTAL AND OFFSHORE REPORTS..................

................LOCAL PIERS AND NC RESERVE................


STATION/POSITION TIME  SKY/WX   TEMP    WIND        PRES    VSBY
                                AIR SEA DIR/SP/G
                 (UTC)          (F)     (DEG/KT/KT) (MB)    (MI)
JOHNY MRCER PIER 0400            79 83  220/  7/  8 1016.2S
NC RESRV MASNBRO 0300            78     220/  3     1016.0S
OCEAN CREST PIER 0400            81 81  190/ 13/ 15 1015.9S
SPRINGMAID  PIER 0400            79 82  230/  8/  9 1016.9R


................COASTAL AND OFFSHORE BUOYS................


STATION/POSITION TIME  SKY/WX   TEMP    WIND        PRES    VSBY
                                AIR SEA DIR/SP/G
                 (UTC)          (F)     (DEG/KT/KT) (MB)    (MI)
DIMNDSHOAL 41025 0400            80     340/  4/  6 1016.8R
WVE H/P(F/S)=  5/ 9 WND WVE H/P(F/S)=  2/ 4 SWL H/P/D(F/S/D)=  5/120/ 9

CAPE LOOKOUT     0300            80     230/  6/  8 1016.4R
ONSLOW BAY 41036 0400            82 81  230/ 12/ 16 1016.9R
WVE H/P(F/S)=  4/10 WND WVE H/P(F/S)=  2/ 4 SWL H/P/D(F/S/D)=  3/120/10

5 WRITEBCH 41038 0400            78 81  230/ 14/ 16   N/A
MASONBORO  41110 0400               81                N/A
WVE H/P(F/S)=  3/ 9 WND WVE H/P(F/S)=  3/ 9

WILM HARBR 41108 0400               81                N/A
WVE H/P(F/S)=  3/10 WND WVE H/P(F/S)=  3/10

27WRITEBCH 41037 0300            78 81  230/ 12/ 14 1016.4R
FRYING PAN 41013 NOT AVBL
SUNST NRSH 41024 0300            82     220/ 12/ 14 1016.4R
CAPRS NRSH 41029 NOT AVBL
EDISTO     41004 0400            81 83  170/  8/ 10 1016.9R
WVE H/P(F/S)=  4/ 9 SWL H/P/D(F/S/D)=  3/ 9



..........OFFSHORE BUOYS BEYOND 100 NM OFFSHORE...........
.....IN A TRIANGLE---HAT TO BERMUDA TO BAHAMAS TO HAT.....


STATION/POSITION TIME  SKY/WX   TEMP    WIND        PRES    VSBY
                                AIR SEA DIR/SP/G
                 (UTC)          (F)     (DEG/KT/KT) (MB)    (MI)
150E HAT   41001 NOT AVBL
W BERMUDA  41048 0305            79 79  290/ 12/ 16 1017.4F
WVE H/P(F/S)=  7/ 8 WND WVE H/P(F/S)=  3/ 6 SWL H/P/D(F/S/D)=  5/300/ 8

ATLANTIC S 41049 0326            84 85  180/  4/  6 1019.9F
WVE H/P(F/S)=  5/ 9 WND WVE H/P(F/S)=  2/ 4 SWL H/P/D(F/S/D)=  5/190/ 9

E BAHAMAS  41046 0331            84 84  110/ 12/ 14 1018.7F
WVE H/P(F/S)=  6/ 9 WND WVE H/P(F/S)=  2/ 5 SWL H/P/D(F/S/D)=  5/110/ 9

NE BAHAMAS 41047 0338            83 84  180/  8/ 10 1019.2R
WVE H/P(F/S)=  4/ 8 WND WVE H/P(F/S)=  2/ 4 SWL H/P/D(F/S/D)=  5/110/ 8

120E CANVRL41010 0400            83 84  120/  6/  8 1017.6S
WVE H/P(F/S)=  4/ 9 SWL H/P/D(F/S/D)=  5/ 60/ 9


END



USA.gov is the U.S. government's official web portal to all federal, state and local government web resources and services.